Regional Weather Roundup
Issued by NWS

Current Version | Previous Version | Text Only | Print | Product List | Glossary Off
Versions: 1 2 3 4 5 6 7 8 9 10 11 12 13 14 15 16 17 18 19 20 21 22 23 24 25 26 27 28 29 30 31 32 33 34 35 36 37 38 39 40 41 42 43 44 45 46 47 48 49 50

000
ASUS44 KMEG 101910
RWRTN
TENNESSEE HOURLY STATE WEATHER ROUNDUP
NATIONAL WEATHER SERVICE MEMPHIS TN
100 PM CST SAT DEC 10 2016

TNZ002-004-019-021-049-052-054-088>092-102000-
WEST TENNESSEE

CITY           SKY/WX    TMP DP  RH WIND       PRES   REMARKS
MEMPHIS INTL   MOSUNNY   43  15  32 CALM      30.48F
NWS MEMPHIS      N/A     44 N/A N/A MISG        N/A
JACKSON        SUNNY     40  16  37 CALM      30.50F
DYERSBURG      SUNNY     37  18  44 SE7       30.50F WCI  32
UNION CITY     SUNNY     36  18  48 CALM      30.49F
PARIS          SUNNY     36  14  41 SE3       30.50F
HUNTINGDON     SUNNY     37  16  41 CALM      30.49F
LEXINGTON      SUNNY     39  10  30 VRB5      30.49F
$$

TNZ008-025-027-028-033-062-065-066-102000-
NORTH MIDDLE TENNESSEE

CITY           SKY/WX    TMP DP  RH WIND       PRES   REMARKS
NASHVILLE      MOSUNNY   38  14  37 VRB5      30.51F WCI  34
PORTLAND       SUNNY     36  14  41 CALM      30.49F
CLARKSVILLE    SUNNY     36  14  40 VRB3      30.51F
SMYRNA         SUNNY     39  16  39 S3        30.52F
GALLATIN       SUNNY     36  16  44 E3        30.53F
CROSSVILLE     SUNNY     35  12  38 VRB3      30.43F
$$

TNZ061-075-076-078-094-096-097-102000-
SOUTH MIDDLE TENNESSEE

CITY           SKY/WX    TMP DP  RH WIND       PRES   REMARKS
FAYETTEVILLE   SUNNY     39  16  38 NE3       30.46F
TULLAHOMA      SUNNY     37  12  35 NE5       30.47F WCI  34
WINCHESTER     SUNNY     39  12  33 VRB5      30.46F
MCMINNVILLE    SUNNY     36  16  44 VRB5        N/A  WCI  32
COLUMBIA       SUNNY     37  18  44 NE5       30.48F WCI  34
SHELBYVILLE    SUNNY     39  18  41 CALM      30.49F
$$

TNZ017-018-042-046-047-102000-
NORTHEAST TENNESSEE

CITY           SKY/WX    TMP DP  RH WIND       PRES   REMARKS
TRI CITIES     PTSUNNY   35  15  44 VRB3      30.46F
ELIZABETHTON   SUNNY     36  12  38 W10       30.45F WCI  28
$$

TNZ012-013-036-069-073-074-102000-
CENTRAL EAST TENNESSEE

CITY           SKY/WX    TMP DP  RH WIND       PRES   REMARKS
KNOXVILLE      MOSUNNY   39  10  30 MISG        N/A
OAK RIDGE      SUNNY     38  13  35 CALM      30.51F
DOWNTOWN KNOXV SUNNY     39  14  35 CALM      30.51F
GATLINBURG     SUNNY     36  16  44 VRB3      30.48F
MORRISTOWN     SUNNY     36  12  38 VRB5      30.47F WCI  32
JACKSBORO      SUNNY     37  10  32 CALM      30.50F
$$

TNZ083-085-099-102000-
SOUTHEAST TENNESSEE

CITY           SKY/WX    TMP DP  RH WIND       PRES   REMARKS
CHATTANOOGA    MOSUNNY   41  14  33 E5        30.48F
$$

SKY/WX REPORTED AS FAIR MEANS FEW OR NO CLOUDS BELOW
12 THOUSAND FEET.





USA.gov is the U.S. government's official web portal to all federal, state and local government web resources and services.